Location: Kernascl�den
(48.0062°N, 3.3198°W)
Time: 12:38:47
(UTC+00:00)

Cosmos 1092 Rocket - Pass Details

Date: 21 January 2021
Orbit: 954 x 995 km, 83.0° (Epoch: 06 March)

Event Time Altitude Azimuth Distance (km) Brightness Sun altitude
Rises 19:02:05 0° 183° (S) 3,654 7.1 -20.7°
Reaches altitude 10° 19:04:35 10° 182° (S) 2,705 6.4 -21.1°
Maximum altitude 19:10:47 81° 96° (E) 981 3.8 -22.1°
Drops below altitude 10° 19:16:58 10° 11° (N) 2,701 6.2 -23.1°
Sets 19:19:27 0° 10° (N) 3,648 6.9 -23.6°
